Location: Chapel Hill
(35.9134°N, 79.0560°W)
Time: 06:10:27
(UTC-04:00)

ACS3 Solar Sail - Pass Details

Date: 26 June 2024
Orbit: 993 x 1022 km, 97.4° (Epoch: 23 July)

Event Time Altitude Azimuth Distance (km) Brightness Sun altitude
Exits shadow 00:16:03 14° 245° (WSW) 2,473 6.8 -28.9°
Maximum altitude 00:18:20 17° 270° (W) 2,297 6.9 -29.0°
Drops below altitude 10° 00:22:11 10° 309° (NW) 2,763 7.8 -29.2°
Sets 00:25:42 0° 329° (NNW) 3,715 8.9 -29.4°
